TITAN 3C TRANSTAGE DEB, 43516

Orbit data source: Space-Track

TITAN 3C TRANSTAGE DEB, 43516 is space debris in GEO originally from a launch on Sun, 09 Feb 1969 UTC launched from the Air Force Eastern Test Range (AFETR). Debris objects in space refer to the collection of defunct objects orbiting the Earth. Examples of debris include non-operational satellites, rocket bodies, and fragments generated from explosions, collisions, or faulty payload assembly.

Not visible in the next 10 days
Identifier
43516, 1969-013U
Orbit
GEO
Country
Flag of USUS
Related business
Manufacturer
Martin Marietta
Mission
Spacecraft
Bus & Motor
Unknown
Mass
Unknown
Launch date (UTC)
1969-02-09 (57 years ago)
Launch vehicle
Unknown
Launch site
Air Force Eastern Test Range (AFETR)
Object type
Payload
Rocket body
Debris
Shape & HBR
Unknown shape, 1.1 m
Radar Cross Section
RCS unknown

Expand to show TLE details & history
Last TLE update: 13 hours ago

TLE from 13 hours ago
0 TITAN 3C TRANSTAGE DEB
1 43516U 69013U   25351.68886460 -.00000048  00000-0  00000-0 0  9993
2 43516   1.1460  57.8015 0100100  29.8568 329.4769  0.96512442 26774
Epoch: 2025-12-17T16:31Z
TLE epoch observation values (Epoch: 2025-12-17T16:31:57.901Z)
Latitude
Longitude
81.9864°
Altitude
36,500.052 km
Speed
3.062 km/s
True Right ascension
03h 46m 07s
True Declination
0° 00' 00"
Sunlit
Object was in daylight at epoch
Visualization orbit readout
Latitude
Unknown
Longitude
Unknown
Altitude
Unknown
Speed
Unknown
Apparent Right ascension
Unknown
Apparent Declination
Unknown
Sunlit
N/A
Visualization observer readout
Local Sidereal Time
04:08:34
Azimuth
Unknown
Elevation
Unknown
Doppler factor
Unknown
Orbital elements
Apogee altitude
37,308.552 km
Perigee altitude
36,442.613 km
Semi-major axis
43,253.719 km
Eccentricity
0.01001
Inclination
1.146°
RAAN
57.8015°
Arg. of periapsis
29.8568°
True anomaly
328.88799°
Mean anomaly
329.4769°
Eccentric anomaly
329.18308°
Mean motion
0.24127 °/min
Orbital period
1,492.09 mins
BSTAR
0
Loading maneuver chart data...
Computing Atmospheric mass density...

Documentation

Showing up to 5 results
|